METEOR 2-8

导读 | 星芒AI

METEOR 2-8 是俄罗斯于1989年发射的一颗气象卫星,属于METEOR 2系列。该卫星主要用于地球观测和气象监测,搭载了多种遥感仪器,能够收集云层、地表温度和大气参数等数据。卫星运行在近地轨道,设计寿命约3年,主要服务于俄罗斯的气象预报和环境监测系统。METEOR 2-8 的数据为天气预测和气候研究提供了重要支持,是苏联/俄罗斯早期气象卫星发展的重要组成部分。

基本信息
目录编号:
13113
目录名称:
METEOR 2-8
国际标识:
1982-025A
轨道中心:
EARTH
卫星名称:
METEOR 2-8
卫星全名:
--
卫星状态:
在轨 (已飞行15969 天)
发射日期:
1982-03-25 UTC
国别 :
俄罗斯(独联体) (CIS)
星等 :
--
轨道信息
数据来源 国际轨道数据 AOE轨道数据
星历时间 2025-12-13T08:00:29+0800
9小时前
查看轨道信息
2025-12-13T11:00:00+0800
6小时前
查看轨道信息
半长轴 7322.298km 7322.29km
偏心率 0.001896 0.0018792
轨道倾角 82.540° 82.539°
近地点辐角 43.733° 44.368°
升交点赤经 246.545° 246.447°
平近点角 332.347° 233.189°
近地点 930.279km 930.394km
远地点 958.047km 957.916km
周期 103.928分钟 103.927分钟
每日圈数 13.855803 13.855825
详细信息
使用方式:
暂无
2D轨道图
3D轨道图
轨道高度分析图
轨道倾角分析图
轨道综合分析图
查看轨道综合分析图